TimeEDT,TemperatureF,Dew PointF,Humidity,Sea Level PressureIn,VisibilityMPH,Wind Direction,Wind SpeedMPH,Gust SpeedMPH,PrecipitationIn,Events,Conditions,WindDirDegrees,DateUTC
12:15 AM,65.3,61.3,87,30.12,10.0,SSW,4.6,-,N/A,,Clear,210,2013-10-03 04:15:00
12:35 AM,63.9,61.0,90,30.12,10.0,SSW,5.8,-,N/A,,Clear,210,2013-10-03 04:35:00
12:55 AM,64.6,61.0,88,30.12,10.0,SSW,5.8,-,N/A,,Clear,210,2013-10-03 04:55:00
1:15 AM,64.0,60.8,89,30.12,10.0,SSW,5.8,-,N/A,,Clear,200,2013-10-03 05:15:00
1:35 AM,64.0,60.8,89,30.12,10.0,SSW,4.6,-,N/A,,Clear,200,2013-10-03 05:35:00
1:55 AM,63.9,60.8,90,30.12,10.0,SW,3.5,-,N/A,,Clear,220,2013-10-03 05:55:00
2:15 AM,63.9,61.0,90,30.12,10.0,Calm,Calm,-,N/A,,Clear,0,2013-10-03 06:15:00
2:35 AM,62.1,60.1,93,30.11,10.0,Calm,Calm,-,N/A,,Clear,0,2013-10-03 06:35:00
2:55 AM,62.4,60.6,94,30.11,10.0,Calm,Calm,-,N/A,,Clear,0,2013-10-03 06:55:00
3:15 AM,61.9,60.8,96,30.11,10.0,Calm,Calm,-,N/A,,Clear,0,2013-10-03 07:15:00
3:35 AM,61.7,61.0,97,30.11,10.0,Calm,Calm,-,N/A,,Clear,0,2013-10-03 07:35:00
3:55 AM,61.0,60.8,99,30.11,7.0,Calm,Calm,-,N/A,,Clear,0,2013-10-03 07:55:00
4:15 AM,60.3,60.3,100,30.11,7.0,Calm,Calm,-,N/A,,Clear,0,2013-10-03 08:15:00
4:35 AM,60.3,60.3,100,30.11,7.0,Calm,Calm,-,N/A,,Clear,0,2013-10-03 08:35:00
4:55 AM,59.2,59.2,100,30.11,4.0,Calm,Calm,-,N/A,,Clear,0,2013-10-03 08:55:00
5:15 AM,59.4,59.4,100,30.11,3.0,Calm,Calm,-,N/A,,Clear,0,2013-10-03 09:15:00
5:35 AM,59.0,59.0,100,30.11,2.0,Calm,Calm,-,N/A,,Clear,0,2013-10-03 09:35:00
5:55 AM,58.5,58.5,100,30.11,3.0,Calm,Calm,-,N/A,,Clear,0,2013-10-03 09:55:00
6:15 AM,57.9,57.9,100,30.12,2.5,Calm,Calm,-,N/A,,Clear,0,2013-10-03 10:15:00
6:35 AM,58.3,58.3,100,30.12,4.0,Calm,Calm,-,N/A,,Clear,0,2013-10-03 10:35:00
6:55 AM,58.1,58.1,100,30.12,4.0,Calm,Calm,-,N/A,,Clear,0,2013-10-03 10:55:00
7:15 AM,58.3,58.3,100,30.13,4.0,Calm,Calm,-,N/A,,Clear,0,2013-10-03 11:15:00
7:35 AM,57.9,57.9,100,30.13,3.0,Calm,Calm,-,N/A,,Clear,0,2013-10-03 11:35:00
7:55 AM,58.6,58.6,100,30.13,4.0,Calm,Calm,-,N/A,,Clear,0,2013-10-03 11:55:00
8:15 AM,59.9,59.9,100,30.13,5.0,Calm,Calm,-,N/A,,Clear,0,2013-10-03 12:15:00
8:35 AM,61.9,61.9,100,30.13,5.0,Calm,Calm,-,N/A,,Clear,0,2013-10-03 12:35:00
8:55 AM,65.5,64.8,98,30.13,7.0,SSW,3.5,-,N/A,,Clear,210,2013-10-03 12:55:00
9:15 AM,68.5,64.2,86,30.14,10.0,SSW,3.5,-,N/A,,Clear,210,2013-10-03 13:15:00
9:35 AM,71.4,63.3,76,30.14,10.0,SW,3.5,-,N/A,,Clear,230,2013-10-03 13:35:00
9:55 AM,73.2,61.7,67,30.14,10.0,SW,3.5,-,N/A,,Clear,220,2013-10-03 13:55:00
10:15 AM,74.3,61.7,65,30.15,10.0,Calm,Calm,-,N/A,,Clear,0,2013-10-03 14:15:00
10:35 AM,74.5,62.2,66,30.15,10.0,Calm,Calm,-,N/A,,Scattered Clouds,0,2013-10-03 14:35:00
10:55 AM,76.5,62.6,62,30.15,10.0,Calm,Calm,-,N/A,,Scattered Clouds,0,2013-10-03 14:55:00
11:15 AM,77.9,62.8,60,30.15,10.0,Calm,Calm,-,N/A,,Scattered Clouds,0,2013-10-03 15:15:00
11:35 AM,79.2,63.1,58,30.14,10.0,Calm,Calm,-,N/A,,Clear,0,2013-10-03 15:35:00
11:55 AM,81.3,64.0,56,30.14,10.0,South,3.5,-,N/A,,Clear,170,2013-10-03 15:55:00
12:15 PM,81.3,61.9,52,30.13,10.0,WSW,3.5,-,N/A,,Clear,240,2013-10-03 16:15:00
12:35 PM,83.1,61.5,48,30.13,10.0,Calm,Calm,-,N/A,,Clear,0,2013-10-03 16:35:00
12:55 PM,83.8,61.7,47,30.13,10.0,SSW,6.9,-,N/A,,Clear,200,2013-10-03 16:55:00
1:15 PM,83.5,62.2,49,30.12,10.0,WSW,4.6,-,N/A,,Clear,250,2013-10-03 17:15:00
1:35 PM,85.1,60.6,44,30.11,10.0,South,3.5,-,N/A,,Clear,170,2013-10-03 17:35:00
1:55 PM,86.0,61.2,43,30.11,10.0,SW,8.1,-,N/A,,Scattered Clouds,220,2013-10-03 17:55:00
2:15 PM,87.4,60.3,40,30.10,10.0,South,6.9,-,N/A,,Mostly Cloudy,170,2013-10-03 18:15:00
2:35 PM,86.0,60.8,43,30.10,10.0,SW,6.9,-,N/A,,Scattered Clouds,230,2013-10-03 18:35:00
2:55 PM,82.0,62.2,51,30.10,10.0,West,4.6,-,N/A,,Scattered Clouds,260,2013-10-03 18:55:00
3:15 PM,82.4,62.1,50,30.09,10.0,West,4.6,-,N/A,,Scattered Clouds,270,2013-10-03 19:15:00
3:35 PM,84.2,61.3,46,30.09,10.0,West,5.8,-,N/A,,Mostly Cloudy,260,2013-10-03 19:35:00
3:55 PM,84.7,59.2,42,30.08,10.0,WSW,5.8,-,N/A,,Scattered Clouds,240,2013-10-03 19:55:00
4:15 PM,82.8,61.7,49,30.08,10.0,West,4.6,-,N/A,,Scattered Clouds,270,2013-10-03 20:15:00
4:35 PM,85.5,60.1,42,30.08,10.0,SSW,8.1,-,N/A,,Scattered Clouds,210,2013-10-03 20:35:00
4:55 PM,84.0,60.1,44,30.08,10.0,SW,5.8,-,N/A,,Clear,220,2013-10-03 20:55:00
5:15 PM,84.0,59.5,43,30.08,10.0,SW,6.9,-,N/A,,Clear,230,2013-10-03 21:15:00
5:35 PM,83.5,60.4,46,30.08,10.0,SW,5.8,-,N/A,,Clear,220,2013-10-03 21:35:00
5:55 PM,81.3,61.2,50,30.08,10.0,SSW,3.5,-,N/A,,Clear,210,2013-10-03 21:55:00
6:15 PM,79.7,62.2,55,30.08,10.0,Calm,Calm,-,N/A,,Clear,0,2013-10-03 22:15:00
6:35 PM,76.5,65.1,68,30.09,10.0,Calm,Calm,-,N/A,,Clear,0,2013-10-03 22:35:00
6:55 PM,73.8,65.3,75,30.09,10.0,Calm,Calm,-,N/A,,Clear,0,2013-10-03 22:55:00
7:15 PM,73.2,63.0,70,30.09,10.0,South,5.8,-,N/A,,Clear,180,2013-10-03 23:15:00
7:35 PM,75.2,62.8,65,30.10,10.0,South,6.9,-,N/A,,Clear,170,2013-10-03 23:35:00
7:55 PM,74.3,63.1,68,30.10,10.0,South,5.8,-,N/A,,Clear,180,2013-10-03 23:55:00
8:15 PM,73.6,63.3,70,30.11,10.0,South,5.8,-,N/A,,Clear,180,2013-10-04 00:15:00
8:35 PM,72.9,63.5,72,30.11,10.0,South,5.8,-,N/A,,Clear,180,2013-10-04 00:35:00
8:55 PM,72.5,63.5,73,30.11,10.0,South,4.6,-,N/A,,Clear,170,2013-10-04 00:55:00
9:15 PM,72.0,63.5,75,30.11,10.0,South,5.8,-,N/A,,Clear,180,2013-10-04 01:15:00
9:35 PM,71.6,63.9,76,30.12,10.0,South,4.6,-,N/A,,Clear,170,2013-10-04 01:35:00
9:55 PM,70.7,64.4,80,30.12,10.0,South,5.8,-,N/A,,Clear,180,2013-10-04 01:55:00
10:15 PM,70.3,64.6,82,30.13,10.0,South,5.8,-,N/A,,Clear,180,2013-10-04 02:15:00
10:35 PM,70.2,64.9,83,30.13,10.0,South,4.6,-,N/A,,Clear,180,2013-10-04 02:35:00
10:55 PM,69.3,64.9,86,30.13,10.0,South,4.6,-,N/A,,Clear,190,2013-10-04 02:55:00
11:15 PM,68.7,65.3,89,30.13,10.0,South,4.6,-,N/A,,Clear,190,2013-10-04 03:15:00
11:35 PM,68.7,65.3,89,30.13,10.0,South,4.6,-,N/A,,Clear,180,2013-10-04 03:35:00
11:55 PM,68.0,65.3,91,30.13,10.0,South,3.5,-,N/A,,Clear,180,2013-10-04 03:55:00